TimeCST,TemperatureF,Dew PointF,Humidity,Sea Level PressureIn,VisibilityMPH,Wind Direction,Wind SpeedMPH,Gust SpeedMPH,PrecipitationIn,Events,Conditions,WindDirDegrees,DateUTC
12:40 AM,51.8,48.2,88,29.88,5.0,East,4.6,-,0.00,Thunderstorm,Overcast,80,2012-12-09 06:40:00
12:53 AM,52.0,48.9,89,29.88,3.0,ENE,6.9,-,0.01,Rain-Thunderstorm,Rain,60,2012-12-09 06:53:00
1:06 AM,51.8,48.2,88,29.86,4.0,East,6.9,-,0.01,Rain,Light Rain,80,2012-12-09 07:06:00
1:53 AM,52.0,50.0,93,29.86,3.0,ENE,4.6,-,0.01,,Overcast,70,2012-12-09 07:53:00
2:07 AM,51.8,50.0,94,29.85,3.0,East,4.6,-,N/A,,Overcast,80,2012-12-09 08:07:00
2:53 AM,52.0,50.0,93,29.84,3.0,ENE,4.6,-,N/A,,Overcast,60,2012-12-09 08:53:00
3:13 AM,51.8,51.8,100,29.83,1.8,NNE,6.9,-,0.05,Rain,Heavy Rain,30,2012-12-09 09:13:00
3:24 AM,51.8,50.0,94,29.82,2.5,East,5.8,-,0.08,Rain,Light Rain,80,2012-12-09 09:24:00
3:53 AM,53.1,51.1,93,29.83,2.5,NE,4.6,-,0.09,Rain,Light Rain,50,2012-12-09 09:53:00
4:23 AM,53.6,51.8,94,29.82,1.2,ENE,3.5,-,0.16,Rain,Heavy Rain,70,2012-12-09 10:23:00
4:39 AM,53.6,51.8,94,29.82,2.5,Calm,Calm,-,0.19,,Overcast,0,2012-12-09 10:39:00
4:53 AM,52.0,51.1,97,29.83,2.0,North,4.6,-,0.19,Rain,Light Rain,10,2012-12-09 10:53:00
5:53 AM,53.1,51.1,93,29.82,2.0,NNE,3.5,-,0.00,,Overcast,30,2012-12-09 11:53:00
6:26 AM,53.6,51.8,94,29.82,2.0,ENE,3.5,-,N/A,,Overcast,70,2012-12-09 12:26:00
6:35 AM,53.6,51.8,94,29.82,2.5,NE,3.5,-,N/A,,Overcast,40,2012-12-09 12:35:00
6:53 AM,54.0,52.0,93,29.83,2.0,Calm,Calm,-,N/A,,Overcast,0,2012-12-09 12:53:00
7:12 AM,53.6,51.8,94,29.82,2.5,Calm,Calm,-,N/A,,Overcast,0,2012-12-09 13:12:00
7:32 AM,53.6,51.8,94,29.82,1.2,NE,4.6,-,N/A,,Overcast,40,2012-12-09 13:32:00
7:53 AM,54.0,53.1,97,29.83,1.5,Calm,Calm,-,N/A,,Overcast,0,2012-12-09 13:53:00
8:25 AM,55.4,53.6,94,29.82,1.8,Calm,Calm,-,N/A,,Overcast,0,2012-12-09 14:25:00
8:49 AM,55.4,53.6,94,29.82,1.5,North,3.5,-,N/A,,Overcast,350,2012-12-09 14:49:00
8:53 AM,55.9,54.0,93,29.82,1.2,North,4.6,-,N/A,,Overcast,350,2012-12-09 14:53:00
9:04 AM,55.4,55.4,100,29.83,0.2,Calm,Calm,-,N/A,Fog,Fog,0,2012-12-09 15:04:00
9:31 AM,57.2,55.4,94,29.84,0.2,SSE,4.6,-,0.02,Fog-Rain,Rain,150,2012-12-09 15:31:00
9:36 AM,57.2,55.4,94,29.84,0.2,SE,4.6,-,0.02,Fog-Rain,Light Rain,140,2012-12-09 15:36:00
9:41 AM,57.2,57.2,100,29.83,0.2,SE,3.5,-,0.03,Fog-Rain,Light Rain,140,2012-12-09 15:41:00
9:47 AM,57.2,57.2,100,29.83,1.0,SE,3.5,-,0.03,,Overcast,130,2012-12-09 15:47:00
9:48 AM,57.9,57.0,97,29.83,1.2,Calm,Calm,-,0.03,,Overcast,0,2012-12-09 15:48:00
9:51 AM,57.2,57.2,100,29.83,1.8,SSE,3.5,-,N/A,,Overcast,150,2012-12-09 15:51:00
9:54 AM,59.0,57.2,94,29.83,2.0,SE,4.6,-,0.00,Rain,Light Rain,140,2012-12-09 15:54:00
10:03 AM,59.0,57.2,94,29.83,3.0,SE,5.8,-,0.00,,Mostly Cloudy,140,2012-12-09 16:03:00
10:24 AM,60.8,59.0,94,29.82,5.0,SSE,9.2,-,0.00,,Mostly Cloudy,160,2012-12-09 16:24:00
10:35 AM,60.8,59.0,94,29.82,8.0,SSE,8.1,-,0.00,,Mostly Cloudy,160,2012-12-09 16:35:00
10:53 AM,61.0,59.0,93,29.81,10.0,South,8.1,-,0.00,,Mostly Cloudy,170,2012-12-09 16:53:00
11:18 AM,62.6,59.0,88,29.80,10.0,SSW,8.1,-,N/A,,Mostly Cloudy,200,2012-12-09 17:18:00
11:34 AM,64.4,59.0,83,29.79,10.0,SSW,10.4,-,N/A,,Mostly Cloudy,210,2012-12-09 17:34:00
11:53 AM,64.9,60.1,84,29.78,10.0,South,9.2,-,N/A,,Overcast,190,2012-12-09 17:53:00
12:21 PM,66.2,60.8,83,29.77,10.0,SSW,12.7,-,N/A,,Overcast,200,2012-12-09 18:21:00
12:53 PM,64.9,60.1,84,29.75,10.0,South,8.1,-,N/A,,Overcast,190,2012-12-09 18:53:00
1:53 PM,64.9,60.1,84,29.73,10.0,South,4.6,-,N/A,,Overcast,180,2012-12-09 19:53:00
2:53 PM,66.9,63.0,87,29.70,10.0,South,6.9,-,N/A,,Overcast,180,2012-12-09 20:53:00
3:28 PM,66.2,62.6,88,29.70,10.0,South,11.5,-,N/A,Thunderstorm,Overcast,190,2012-12-09 21:28:00
3:53 PM,66.0,62.1,87,29.70,6.0,South,12.7,-,0.00,Rain-Thunderstorm,Light Thunderstorms and Rain,180,2012-12-09 21:53:00
4:07 PM,64.4,60.8,88,29.73,2.0,WNW,16.1,25.3,0.09,Rain-Thunderstorm,Thunderstorms and Rain,290,2012-12-09 22:07:00
4:12 PM,62.6,57.2,82,29.73,1.0,West,15.0,25.3,0.24,Rain-Thunderstorm,Heavy Thunderstorms and Rain,270,2012-12-09 22:12:00
4:22 PM,62.6,57.2,82,29.73,3.0,WSW,10.4,18.4,0.30,Rain-Thunderstorm,Light Thunderstorms and Rain,250,2012-12-09 22:22:00
4:38 PM,62.6,57.2,82,29.73,9.0,WSW,10.4,-,0.32,Rain-Thunderstorm,Light Thunderstorms and Rain,250,2012-12-09 22:38:00
4:53 PM,62.1,59.0,90,29.74,5.0,West,8.1,-,0.34,Rain-Thunderstorm,Rain,260,2012-12-09 22:53:00
4:59 PM,62.6,59.0,88,29.74,6.0,SW,9.2,-,0.01,Rain,Light Rain,230,2012-12-09 22:59:00
5:09 PM,62.6,59.0,88,29.75,10.0,West,6.9,-,0.01,,Overcast,260,2012-12-09 23:09:00
5:29 PM,60.8,57.2,88,29.75,10.0,WNW,10.4,-,0.01,,Overcast,300,2012-12-09 23:29:00
5:43 PM,60.8,55.4,82,29.76,10.0,NNW,13.8,-,0.01,,Overcast,330,2012-12-09 23:43:00
5:53 PM,60.1,55.9,86,29.77,10.0,NNW,12.7,-,0.01,,Overcast,330,2012-12-09 23:53:00
6:11 PM,60.8,55.4,82,29.77,10.0,NNW,9.2,-,N/A,,Overcast,330,2012-12-10 00:11:00
6:21 PM,59.0,55.4,88,29.77,10.0,NW,9.2,-,N/A,,Overcast,320,2012-12-10 00:21:00
6:46 PM,57.2,55.4,94,29.78,10.0,NW,16.1,-,N/A,,Overcast,310,2012-12-10 00:46:00
6:53 PM,57.9,55.0,90,29.78,10.0,NW,12.7,-,N/A,,Overcast,320,2012-12-10 00:53:00
7:53 PM,55.0,52.0,89,29.81,10.0,NNW,6.9,-,N/A,,Overcast,340,2012-12-10 01:53:00
8:10 PM,55.4,51.8,88,29.80,10.0,NNW,10.4,-,N/A,,Overcast,330,2012-12-10 02:10:00
8:41 PM,53.6,48.2,82,29.81,10.0,NW,13.8,-,N/A,,Overcast,310,2012-12-10 02:41:00
8:53 PM,53.1,48.0,83,29.82,10.0,NNW,10.4,-,N/A,,Overcast,330,2012-12-10 02:53:00
9:53 PM,51.1,46.0,83,29.83,10.0,NNW,13.8,-,N/A,,Overcast,340,2012-12-10 03:53:00
10:18 PM,50.0,44.6,82,29.84,10.0,North,19.6,-,N/A,,Overcast,350,2012-12-10 04:18:00
10:44 PM,50.0,42.8,76,29.84,10.0,NNW,16.1,25.3,N/A,,Overcast,340,2012-12-10 04:44:00
10:53 PM,48.9,43.0,80,29.85,10.0,NNW,12.7,23.0,N/A,,Overcast,340,2012-12-10 04:53:00
11:53 PM,48.0,39.9,74,29.86,10.0,NW,13.8,20.7,N/A,,Overcast,320,2012-12-10 05:53:00